Regional Weather Roundup
Issued by NWS

Home | Current Version | Previous Version | Text Only | Print | Product List | Glossary On
Versions: 1 2 3 4 5 6 7 8 9 10 11 12 13 14 15 16 17 18 19 20 21 22 23 24 25 26 27
000
ASUS42 KFFC 260003
RWRGA
WEATHER ROUNDUP FOR GEORGIA
NATIONAL WEATHER SERVICE PEACHTREE CITY GA
800 PM EDT MON JUL 25 2016

NOTE: "FAIR" INDICATES FEW OR NO CLOUDS BELOW 12,000 FEET WITH NO
SIGNIFICANT WEATHER AND/OR OBSTRUCTIONS TO VISIBILITY.

* = USE WITH CAUTION. THE STATIONS MARKED WITH AN ASTERISK MAY NOT
REPORT WEATHER SUCH AS PRECIPITATION, FOG, OR THUNDER AND ARE NOT
QUALITY CONTROLLED BY NWS.

THE REMARK "TC" DENOTES TEMPERATURE READING IN DEGREES CELSIUS.

GAZ001>058-260100-
NORTH GEORGIA

CITY           SKY/WX    TMP DP  RH WIND       PRES   REMARKS
ATLANTA        LGT RAIN  85  72  65 VRB5      30.01R HX  91
6HR MIN TEMP:  82; 6HR MAX TEMP:  98; 6HR PCP:  0.17;

ATHENS         CLEAR     90  72  55 VRB3      29.99R HX  97
6HR MIN TEMP:  90; 6HR MAX TEMP: 101;

CHAMBLEE       CLOUDY    90  69  50 W12       29.99R HX  94
6HR MIN TEMP:  90; 6HR MAX TEMP:  97;

PEACHTREE CITY   N/A     88  70  55 W3        30.01R HX  93
6HR MIN TEMP:  88; 6HR MAX TEMP:  98;

ROME           CLEAR     93  69  45 N7        29.97R HX  98
6HR MIN TEMP:  90; 6HR MAX TEMP:  99;

WEST ATLANTA   CLOUDY    88  68  51 SW7       29.99R HX  91
6HR MIN TEMP:  88; 6HR MAX TEMP:  97;

GAINESVILLE    MOCLDY    86  70  58 CALM      30.03R HX  90
6HR MIN TEMP:  82; 6HR MAX TEMP:  95; 6HR PCP: TRACE;

CARTERSVILLE   CLEAR     90  70  51 CALM      29.98R HX  95
6HR MIN TEMP:  90; 6HR MAX TEMP:  97;



CITY           SKY/WX    TMP DP  RH WIND       PRES   REMARKS
DALTON*        CLOUDY    84  73  70 CALM      29.99R HX  91
LAWRENCEVILLE* CLEAR     90  72  55 VRB5      30.00R HX  96
MARIETTA       TSTM      82  73  74 NW12      30.01R
KENNESAW*      MOCLDY    88  70  55 E5        29.94R HX  92
CANTON*        MOCLDY    88  61  40 NW6       30.02R
BLAIRSVILLE*     N/A    N/A N/A N/A MISG      30.07R
$$

GAZ059>098-102>109-260100-
CENTRAL GEORGIA

CITY           SKY/WX    TMP DP  RH WIND       PRES   REMARKS
AUGUSTA-BUSH   CLEAR     91  65  41 S10       29.97R HX  93
6HR MIN TEMP:  90; 6HR MAX TEMP:  99;

AUGUSTA-DANIEL CLEAR     93  67  42 S9        29.99R HX  96
6HR MIN TEMP:  93; 6HR MAX TEMP:  98;

COLUMBUS       PTCLDY    89  69  51 NW7       29.98R HX  93
6HR MIN TEMP:  87; 6HR MAX TEMP:  97; 6HR PCP: TRACE;

MACON          CLEAR     89  67  47 S3        29.98R HX  92
6HR MIN TEMP:  89; 6HR MAX TEMP:  97;



CITY           SKY/WX    TMP DP  RH WIND       PRES   REMARKS
LAGRANGE*      CLEAR     89  76  64 W5        30.00R HX 101
MILLEDGEVILLE* CLEAR     91  73  55 CALM      29.97S HX 100
$$

GAZ099>101-110>166-260100-
SOUTH GEORGIA

CITY           SKY/WX    TMP DP  RH WIND       PRES   REMARKS
SAVANNAH       PTCLDY    86  70  58 S14       30.01S HX  90
6HR MIN TEMP:  86; 6HR MAX TEMP:  94;

VALDOSTA       CLEAR     86  74  67 SW5       30.00R HX  94
6HR MIN TEMP:  86; 6HR MAX TEMP:  94;

ALMA           CLEAR     90  66  45 S6        29.99S HX  92
6HR MIN TEMP:  90; 6HR MAX TEMP:  95;

ST SIMONS      CLEAR     85  70  60 SE9G20    30.03R
6HR MIN TEMP:  85; 6HR MAX TEMP:  91;

ALBANY         CLEAR     90  63  40 SE6       30.00R HX  91
BRUNSWICK      CLEAR     86  73  66 SE10G16   30.03S HX  93


CITY           SKY/WX    TMP DP  RH WIND       PRES   REMARKS
BAINBRIDGE*    CLEAR     86  70  58 CALM      29.99R HX  90
MOULTRIE*      CLEAR     90  68  48 S3        30.00S HX  93
VIDALIA*       CLEAR     91  63  38 S7        29.99S HX  92
WAYCROSS*      CLEAR     92  74  54 SE9       30.00S HX 102
DOUGLAS*       CLEAR     90  61  37 S5        30.00S
$$




USA.gov is the U.S. government's official web portal to all federal, state and local government web resources and services.